START_TIME,STEP,MOV.,AL01,t_acc.,AL02,t_acc.,E37,t_acc.,H21,t_acc.
1979-07-31 15:00:33.260 ,0,0,0.,24.0,0.,24.0,2.,24.0,0.,24.0
1979-07-31 15:00:57.250 ,2,1,0.,24.0,0.,24.0,0.,24.0,0.,24.0
1979-07-31 15:01:21.250 ,2,0,0.,24.0,0.,24.0,2.,24.0,0.,24.0
1979-07-31 15:02:33.250 ,0,0,0.,24.0,0.,24.0,1.,24.0,0.,24.0
1979-07-31 15:02:57.250 ,0,0,0.,24.0,0.,24.0,2.,24.0,0.,24.0
1979-07-31 15:03:21.250 ,5,1,0.,24.0,0.,24.0,0.,24.0,0.,24.0
1979-07-31 15:03:45.250 ,5,0,0.,24.0,0.,24.0,1.,24.0,0.,24.0
1979-07-31 15:04:09.250 ,6,1,0.,24.0,0.,24.0,3.,24.0,0.,24.0
1979-07-31 15:04:33.250 ,6,0,0.,24.0,0.,24.0,1.,24.0,0.,24.0
1979-07-31 15:04:57.250 ,7,1,8.,24.0,0.,24.0,1.,24.0,0.,24.0
1979-07-31 15:05:21.250 ,7,0,25.,24.0,0.,24.0,1.,24.0,0.,24.0
1979-07-31 15:05:45.250 ,7,1,34.,24.0,0.,24.0,1.,24.0,0.,24.0
1979-07-31 15:06:09.250 ,7,0,33.,24.0,0.,24.0,3.,24.0,0.,24.0
1979-07-31 15:06:33.250 ,6,1,30.,24.0,0.,24.0,2.,24.0,0.,24.0
1979-07-31 15:06:57.250 ,6,0,0.,24.0,0.,24.0,3.,24.0,0.,24.0
1979-07-31 15:07:21.250 ,5,1,0.,24.0,0.,24.0,2.,24.0,0.,24.0
1979-07-31 15:07:45.250 ,5,0,0.,24.0,0.,24.0,1.,24.0,0.,24.0
1979-07-31 15:08:09.250 ,4,1,0.,24.0,1.,24.0,1.,24.0,0.,24.0
1979-07-31 15:08:33.250 ,4,0,0.,24.0,0.,24.0,0.,24.0,0.,24.0
1979-07-31 15:08:57.250 ,3,1,0.,24.0,0.,24.0,0.,24.0,0.,24.0
1979-07-31 15:09:21.250 ,3,0,0.,24.0,0.,24.0,2.,24.0,0.,24.0
1979-07-31 15:09:45.250 ,2,1,1.,24.0,0.,24.0,0.,24.0,0.,24.0
1979-07-31 15:10:09.250 ,2,0,0.,24.0,0.,24.0,1.,24.0,0.,24.0
1979-07-31 15:10:33.250 ,1,1,0.,24.0,0.,24.0,0.,24.0,0.,24.0
1979-07-31 15:10:57.250 ,1,0,0.,24.0,0.,24.0,1.,24.0,0.,24.0
1979-07-31 15:11:21.250 ,0,1,0.,24.0,1.,24.0,0.,24.0,0.,24.0
1979-07-31 15:11:45.250 ,0,0,1.,24.0,0.,24.0,1.,24.0,0.,24.0
1979-07-31 15:12:09.250 ,0,1,0.,24.0,0.,24.0,1.,24.0,0.,24.0
1979-07-31 15:12:33.250 ,0,0,0.,24.0,0.,24.0,1.,24.0,0.,24.0
1979-07-31 15:12:57.250 ,1,1,1.,24.0,0.,24.0,0.,24.0,0.,24.0
1979-07-31 15:13:21.250 ,1,0,0.,24.0,0.,24.0,0.,24.0,0.,24.0
1979-07-31 15:13:45.250 ,2,1,0.,24.0,0.,24.0,1.,24.0,0.,24.0
1979-07-31 15:14:09.250 ,2,0,0.,24.0,0.,24.0,0.,24.0,0.,24.0
1979-07-31 15:14:33.250 ,3,1,0.,24.0,0.,24.0,1.,24.0,0.,24.0
1979-07-31 15:14:57.250 ,3,0,1.,24.0,0.,24.0,1.,24.0,0.,24.0
1979-07-31 15:15:21.250 ,4,1,1.,24.0,0.,24.0,2.,24.0,0.,24.0
1979-07-31 15:15:45.250 ,4,0,0.,24.0,0.,24.0,0.,24.0,0.,24.0
1979-07-31 15:16:09.250 ,5,1,0.,24.0,0.,24.0,1.,24.0,0.,24.0
1979-07-31 15:16:33.250 ,5,0,1.,24.0,0.,24.0,3.,24.0,0.,24.0
1979-07-31 15:16:57.250 ,6,1,1.,24.0,0.,24.0,1.,24.0,0.,24.0
1979-07-31 15:17:21.250 ,6,0,0.,24.0,0.,24.0,1.,24.0,0.,24.0
1979-07-31 15:17:45.250 ,7,1,9.,24.0,0.,24.0,1.,24.0,0.,24.0
1979-07-31 15:18:09.250 ,7,0,28.,24.0,0.,24.0,1.,24.0,0.,24.0
1979-07-31 15:18:33.250 ,7,1,33.,24.0,0.,24.0,2.,24.0,0.,24.0
1979-07-31 15:18:57.250 ,7,0,35.,24.0,0.,24.0,1.,24.0,0.,24.0
1979-07-31 15:19:21.250 ,6,1,35.,24.0,0.,24.0,2.,24.0,0.,24.0
1979-07-31 15:19:45.250 ,6,0,0.,24.0,0.,24.0,1.,24.0,0.,24.0
1979-07-31 15:20:09.250 ,5,1,1.,24.0,0.,24.0,2.,24.0,0.,24.0
1979-07-31 15:20:33.250 ,5,0,0.,24.0,0.,24.0,3.,24.0,0.,24.0
1979-07-31 15:20:57.250 ,4,1,0.,24.0,1.,24.0,2.,24.0,0.,24.0
1979-07-31 15:21:21.250 ,4,0,0.,24.0,0.,24.0,1.,24.0,0.,24.0
1979-07-31 15:21:45.250 ,3,1,0.,24.0,0.,24.0,4.,24.0,0.,24.0
1979-07-31 15:22:09.250 ,3,0,0.,24.0,0.,24.0,3.,24.0,0.,24.0
1979-07-31 15:22:33.250 ,2,1,0.,24.0,0.,24.0,1.,24.0,0.,24.0
1979-07-31 15:22:57.250 ,2,0,0.,24.0,0.,24.0,0.,24.0,0.,24.0
1979-07-31 15:23:21.250 ,1,1,0.,24.0,0.,24.0,2.,24.0,0.,24.0
1979-07-31 15:23:45.250 ,1,0,0.,24.0,0.,24.0,1.,24.0,0.,24.0
1979-07-31 15:24:09.250 ,0,1,0.,24.0,0.,24.0,2.,24.0,0.,24.0
1979-07-31 15:24:33.250 ,0,0,0.,24.0,0.,24.0,1.,24.0,0.,24.0
1979-07-31 15:24:57.250 ,0,1,0.,24.0,0.,24.0,0.,24.0,0.,24.0
1979-07-31 15:25:21.250 ,0,0,0.,24.0,0.,24.0,0.,24.0,0.,24.0
1979-07-31 15:25:45.250 ,1,1,1.,24.0,0.,24.0,1.,24.0,0.,24.0
1979-07-31 15:26:09.250 ,1,0,0.,24.0,0.,24.0,1.,24.0,0.,24.0
1979-07-31 15:26:33.250 ,2,1,0.,24.0,0.,24.0,0.,24.0,0.,24.0
1979-07-31 15:26:57.250 ,2,0,0.,24.0,0.,24.0,1.,24.0,0.,24.0
1979-07-31 15:27:21.250 ,3,1,1.,24.0,0.,24.0,1.,24.0,0.,24.0
1979-07-31 15:27:45.250 ,3,0,0.,24.0,0.,24.0,2.,24.0,0.,24.0
1979-07-31 15:28:09.250 ,4,1,0.,24.0,0.,24.0,0.,24.0,0.,24.0
1979-07-31 15:28:33.250 ,4,0,0.,24.0,0.,24.0,3.,24.0,0.,24.0
1979-07-31 15:28:57.250 ,5,1,0.,24.0,0.,24.0,2.,24.0,0.,24.0
1979-07-31 15:29:21.250 ,5,0,0.,24.0,0.,24.0,0.,24.0,0.,24.0
1979-07-31 15:29:45.250 ,6,1,0.,24.0,1.,24.0,0.,24.0,0.,24.0
1979-07-31 15:30:09.250 ,6,0,0.,24.0,0.,24.0,3.,24.0,0.,24.0
1979-07-31 15:30:33.250 ,7,0,7.,24.0,0.,24.0,1.,24.0,0.,24.0
1979-07-31 15:30:57.250 ,7,0,26.,24.0,0.,24.0,1.,24.0,0.,24.0
1979-07-31 15:31:21.250 ,5,1,14.,24.0,0.,24.0,1.,24.0,0.,24.0
1979-07-31 15:31:45.250 ,1,1,0.,24.0,0.,24.0,2.,24.0,0.,24.0
1979-07-31 15:32:09.250 ,2,1,0.,24.0,0.,24.0,0.,24.0,0.,24.0
1979-07-31 15:32:33.250 ,6,1,0.,24.0,0.,24.0,0.,24.0,0.,24.0
1979-07-31 15:32:57.250 ,5,1,16.,24.0,0.,24.0,3.,24.0,0.,24.0
1979-07-31 15:33:21.250 ,1,1,0.,24.0,0.,24.0,1.,24.0,0.,24.0
1979-07-31 15:33:45.250 ,2,1,0.,24.0,1.,24.0,3.,24.0,0.,24.0
1979-07-31 15:34:09.250 ,6,1,0.,24.0,0.,24.0,2.,24.0,0.,24.0
1979-07-31 15:34:33.250 ,5,1,15.,24.0,0.,24.0,1.,24.0,0.,24.0
1979-07-31 15:34:57.250 ,1,1,0.,24.0,0.,24.0,1.,24.0,0.,24.0
1979-07-31 15:35:21.250 ,2,1,0.,24.0,0.,24.0,1.,24.0,0.,24.0
1979-07-31 15:35:45.250 ,6,1,0.,24.0,0.,24.0,2.,24.0,0.,24.0
1979-07-31 15:36:09.250 ,5,1,17.,24.0,0.,24.0,1.,24.0,0.,24.0
1979-07-31 15:36:33.250 ,1,1,0.,24.0,0.,24.0,1.,24.0,0.,24.0
1979-07-31 15:36:57.250 ,2,1,0.,24.0,0.,24.0,1.,24.0,0.,24.0
1979-07-31 15:37:21.250 ,6,1,0.,24.0,0.,24.0,2.,24.0,0.,24.0
1979-07-31 15:37:45.250 ,5,1,19.,24.0,0.,24.0,2.,24.0,0.,24.0
1979-07-31 15:38:09.250 ,1,1,0.,24.0,0.,24.0,2.,24.0,0.,24.0
1979-07-31 15:38:33.250 ,2,1,0.,24.0,0.,24.0,2.,24.0,0.,24.0
1979-07-31 15:38:57.250 ,6,1,0.,24.0,0.,24.0,2.,24.0,0.,24.0
1979-07-31 15:39:21.250 ,5,1,19.,24.0,0.,24.0,3.,24.0,0.,24.0
1979-07-31 15:39:45.250 ,1,1,0.,24.0,0.,24.0,0.,24.0,0.,24.0
1979-07-31 15:40:09.250 ,2,1,0.,24.0,0.,24.0,1.,24.0,0.,24.0
1979-07-31 15:40:33.250 ,6,1,0.,24.0,0.,24.0,1.,24.0,0.,24.0
1979-07-31 15:40:57.250 ,5,1,16.,24.0,0.,24.0,1.,24.0,0.,24.0
1979-07-31 15:41:21.250 ,1,1,1.,24.0,0.,24.0,3.,24.0,0.,24.0
1979-07-31 15:41:45.250 ,0,0,0.,24.0,0.,24.0,0.,24.0,0.,24.0
1979-07-31 15:42:09.250 ,0,0,0.,24.0,0.,24.0,1.,24.0,0.,24.0
1979-07-31 15:42:33.250 ,5,1,19.,24.0,0.,24.0,3.,24.0,0.,24.0
1979-07-31 15:42:57.250 ,5,0,0.,24.0,0.,24.0,1.,24.0,0.,24.0
1979-07-31 15:43:21.250 ,4,1,1.,24.0,0.,24.0,2.,24.0,0.,24.0
1979-07-31 15:43:45.250 ,4,0,1.,24.0,0.,24.0,2.,24.0,0.,24.0
1979-07-31 15:44:09.250 ,3,1,0.,24.0,0.,24.0,2.,24.0,0.,24.0
1979-07-31 15:44:33.250 ,3,0,0.,24.0,0.,24.0,2.,24.0,0.,24.0
1979-07-31 15:44:57.250 ,2,1,0.,24.0,0.,24.0,1.,24.0,0.,24.0
1979-07-31 15:45:21.250 ,2,0,0.,24.0,0.,24.0,0.,24.0,0.,24.0
1979-07-31 15:45:45.250 ,1,1,0.,24.0,0.,24.0,1.,24.0,0.,24.0
1979-07-31 15:46:09.250 ,1,0,0.,24.0,0.,24.0,0.,24.0,0.,24.0
1979-07-31 15:46:33.250 ,0,1,0.,24.0,0.,24.0,0.,24.0,0.,24.0
1979-07-31 15:46:57.250 ,0,0,0.,24.0,0.,24.0,1.,24.0,0.,24.0
1979-07-31 15:47:21.250 ,0,1,0.,24.0,0.,24.0,1.,24.0,0.,24.0
1979-07-31 15:47:45.250 ,0,0,0.,24.0,1.,24.0,4.,24.0,0.,24.0
1979-07-31 15:48:09.250 ,1,1,0.,24.0,0.,24.0,3.,24.0,0.,24.0
1979-07-31 15:48:33.250 ,1,0,0.,24.0,0.,24.0,2.,24.0,0.,24.0
1979-07-31 15:48:57.250 ,2,1,0.,24.0,0.,24.0,1.,24.0,0.,24.0
1979-07-31 15:49:21.250 ,2,0,0.,24.0,0.,24.0,1.,24.0,0.,24.0
1979-07-31 15:49:45.250 ,3,1,0.,24.0,0.,24.0,3.,24.0,0.,24.0
1979-07-31 15:50:09.250 ,3,0,0.,24.0,0.,24.0,2.,24.0,0.,24.0
1979-07-31 15:50:33.250 ,4,1,0.,24.0,0.,24.0,3.,24.0,0.,24.0
1979-07-31 15:50:57.250 ,4,0,0.,24.0,0.,24.0,2.,24.0,0.,24.0
1979-07-31 15:51:21.250 ,5,1,0.,24.0,0.,24.0,2.,24.0,0.,24.0
1979-07-31 15:51:45.250 ,5,0,0.,24.0,0.,24.0,1.,24.0,0.,24.0
1979-07-31 15:52:09.250 ,6,1,0.,24.0,0.,24.0,4.,24.0,0.,24.0
1979-07-31 15:52:33.250 ,6,0,0.,24.0,0.,24.0,0.,24.0,0.,24.0
1979-07-31 15:52:57.250 ,7,1,6.,24.0,0.,24.0,0.,24.0,0.,24.0
1979-07-31 15:53:21.250 ,7,0,35.,24.0,0.,24.0,1.,24.0,0.,24.0
1979-07-31 15:53:45.250 ,7,1,35.,24.0,0.,24.0,1.,24.0,0.,24.0
1979-07-31 15:54:09.250 ,7,0,19.,24.0,0.,24.0,0.,24.0,0.,24.0
1979-07-31 15:54:33.250 ,6,1,21.,24.0,0.,24.0,0.,24.0,0.,24.0
1979-07-31 15:54:57.250 ,6,0,1.,24.0,0.,24.0,2.,24.0,0.,24.0
1979-07-31 15:55:21.250 ,5,1,1.,24.0,0.,24.0,2.,24.0,0.,24.0
1979-07-31 15:55:45.250 ,5,0,0.,24.0,0.,24.0,1.,24.0,0.,24.0
1979-07-31 15:56:09.250 ,4,1,0.,24.0,0.,24.0,2.,24.0,0.,24.0
1979-07-31 15:56:33.250 ,4,0,0.,24.0,0.,24.0,2.,24.0,0.,24.0
1979-07-31 15:56:57.250 ,3,1,0.,24.0,0.,24.0,0.,24.0,0.,24.0
1979-07-31 15:57:21.250 ,3,0,0.,24.0,1.,24.0,1.,24.0,0.,24.0
1979-07-31 15:57:45.250 ,2,1,0.,24.0,0.,24.0,2.,24.0,0.,24.0
1979-07-31 15:58:09.250 ,2,0,0.,24.0,0.,24.0,1.,24.0,0.,24.0
1979-07-31 15:58:33.250 ,1,1,0.,24.0,0.,24.0,2.,24.0,0.,24.0
1979-07-31 15:58:57.250 ,1,0,0.,24.0,0.,24.0,3.,24.0,0.,24.0
1979-07-31 15:59:21.250 ,0,1,0.,24.0,0.,24.0,0.,24.0,0.,24.0
1979-07-31 15:59:45.250 ,0,0,0.,24.0,0.,24.0,3.,24.0,0.,24.0
1979-07-31 16:00:09.250 ,0,1,0.,24.0,0.,24.0,1.,24.0,0.,24.0
1979-07-31 16:00:33.250 ,0,0,0.,24.0,0.,24.0,3.,24.0,0.,24.0
1979-07-31 16:00:57.250 ,1,1,0.,24.0,0.,24.0,2.,24.0,0.,24.0
1979-07-31 16:01:21.250 ,1,0,0.,24.0,0.,24.0,2.,24.0,0.,24.0
1979-07-31 16:01:45.250 ,2,1,1.,24.0,0.,24.0,4.,24.0,0.,24.0
1979-07-31 16:02:09.250 ,2,0,0.,24.0,0.,24.0,0.,24.0,0.,24.0
1979-07-31 16:02:33.250 ,3,1,1.,24.0,0.,24.0,1.,24.0,0.,24.0
1979-07-31 16:02:57.250 ,3,0,0.,24.0,0.,24.0,0.,24.0,0.,24.0
1979-07-31 16:03:21.250 ,0,0,0.,24.0,0.,24.0,0.,24.0,0.,24.0
1979-07-31 16:03:45.250 ,0,0,,0,,0,,0,,0
1979-07-31 16:11:27.850 ,0,0,,0,,0,,0,,0
1979-07-31 16:11:45.250 ,0,0,0.,24.0,0.,24.0,0.,24.0,0.,24.0
1979-07-31 16:12:09.250 ,0,1,0.,24.0,0.,24.0,1.,24.0,0.,24.0
1979-07-31 16:12:33.250 ,0,0,0.,24.0,0.,24.0,2.,24.0,0.,24.0
1979-07-31 16:12:57.250 ,0,1,0.,24.0,0.,24.0,1.,24.0,0.,24.0
1979-07-31 16:13:21.250 ,0,0,0.,24.0,0.,24.0,1.,24.0,0.,24.0
1979-07-31 16:13:45.250 ,1,1,0.,24.0,0.,24.0,2.,24.0,0.,24.0
1979-07-31 16:14:09.250 ,1,0,0.,24.0,0.,24.0,1.,24.0,0.,24.0
1979-07-31 16:14:33.250 ,2,1,0.,24.0,0.,24.0,3.,24.0,0.,24.0
1979-07-31 16:14:57.250 ,2,0,0.,24.0,0.,24.0,0.,24.0,0.,24.0
1979-07-31 16:15:21.250 ,3,1,0.,24.0,0.,24.0,0.,24.0,0.,24.0
1979-07-31 16:15:45.250 ,3,1,,0,,0,,0,,0
1979-07-31 16:18:46.450 ,7,0,,0,,0,,0,,0
1979-07-31 16:18:57.250 ,7,0,35.,24.0,0.,24.0,2.,24.0,0.,24.0
1979-07-31 16:19:21.250 ,5,1,27.,24.0,0.,24.0,1.,24.0,0.,24.0
1979-07-31 16:19:45.250 ,1,1,0.,24.0,0.,24.0,1.,24.0,0.,24.0
1979-07-31 16:20:09.250 ,2,1,0.,24.0,0.,24.0,1.,24.0,0.,24.0
1979-07-31 16:20:33.250 ,6,1,0.,24.0,0.,24.0,2.,24.0,0.,24.0
1979-07-31 16:20:57.250 ,5,1,5.,24.0,0.,24.0,4.,24.0,0.,24.0
1979-07-31 16:21:21.250 ,1,1,0.,24.0,0.,24.0,0.,24.0,0.,24.0
1979-07-31 16:21:45.250 ,2,1,0.,24.0,0.,24.0,1.,24.0,0.,24.0
1979-07-31 16:22:09.250 ,6,1,0.,24.0,0.,24.0,1.,24.0,0.,24.0
1979-07-31 16:22:33.250 ,5,1,16.,24.0,0.,24.0,4.,24.0,0.,24.0
1979-07-31 16:22:57.250 ,1,1,0.,24.0,0.,24.0,2.,24.0,0.,24.0
1979-07-31 16:23:21.250 ,2,1,0.,24.0,0.,24.0,2.,24.0,0.,24.0
1979-07-31 16:23:45.250 ,6,1,0.,24.0,0.,24.0,2.,24.0,0.,24.0
1979-07-31 16:24:09.250 ,5,1,13.,24.0,0.,24.0,1.,24.0,0.,24.0
1979-07-31 16:24:33.250 ,1,1,0.,24.0,0.,24.0,4.,24.0,0.,24.0
1979-07-31 16:24:57.250 ,2,1,0.,24.0,0.,24.0,1.,24.0,0.,24.0
1979-07-31 16:25:21.250 ,6,1,0.,24.0,0.,24.0,3.,24.0,0.,24.0
1979-07-31 16:25:45.250 ,5,1,12.,24.0,0.,24.0,1.,24.0,0.,24.0
1979-07-31 16:26:09.250 ,1,1,0.,24.0,0.,24.0,2.,24.0,0.,24.0
1979-07-31 16:26:33.250 ,2,1,0.,24.0,0.,24.0,1.,24.0,0.,24.0
1979-07-31 16:26:57.250 ,6,1,0.,24.0,0.,24.0,0.,24.0,0.,24.0
1979-07-31 16:27:21.250 ,5,1,8.,24.0,0.,24.0,6.,24.0,0.,24.0
1979-07-31 16:27:45.250 ,1,1,0.,24.0,0.,24.0,0.,24.0,0.,24.0
1979-07-31 16:28:09.250 ,2,1,0.,24.0,0.,24.0,2.,24.0,0.,24.0
1979-07-31 16:28:33.250 ,6,1,0.,24.0,0.,24.0,5.,24.0,0.,24.0
1979-07-31 16:28:57.250 ,5,1,11.,24.0,1.,24.0,3.,24.0,0.,24.0
1979-07-31 16:29:21.250 ,1,1,0.,24.0,0.,24.0,1.,24.0,0.,24.0
1979-07-31 16:29:45.250 ,0,0,0.,24.0,0.,24.0,4.,24.0,0.,24.0
1979-07-31 16:30:09.250 ,0,0,0.,24.0,0.,24.0,0.,24.0,0.,24.0
1979-07-31 16:30:33.250 ,5,1,12.,24.0,0.,24.0,4.,24.0,0.,24.0
1979-07-31 16:30:57.250 ,5,0,0.,24.0,0.,24.0,1.,24.0,0.,24.0
1979-07-31 16:31:21.250 ,4,1,0.,24.0,0.,24.0,4.,24.0,0.,24.0
1979-07-31 16:31:45.250 ,4,0,0.,24.0,0.,24.0,3.,24.0,0.,24.0
1979-07-31 16:32:09.250 ,3,1,0.,24.0,0.,24.0,0.,24.0,0.,24.0
1979-07-31 16:32:33.250 ,3,0,0.,24.0,0.,24.0,1.,24.0,0.,24.0
1979-07-31 16:32:57.250 ,2,1,2.,24.0,0.,24.0,2.,24.0,0.,24.0
1979-07-31 16:33:21.250 ,2,0,0.,24.0,0.,24.0,3.,24.0,0.,24.0
1979-07-31 16:33:45.250 ,1,1,0.,24.0,0.,24.0,1.,24.0,0.,24.0
1979-07-31 16:34:09.250 ,1,0,0.,24.0,0.,24.0,2.,24.0,0.,24.0
1979-07-31 16:34:33.250 ,0,1,0.,24.0,0.,24.0,3.,24.0,0.,24.0
1979-07-31 16:34:57.250 ,0,0,0.,24.0,0.,24.0,1.,24.0,0.,24.0
1979-07-31 16:35:21.250 ,0,1,0.,24.0,0.,24.0,7.,24.0,0.,24.0
1979-07-31 16:35:45.250 ,0,0,0.,24.0,0.,24.0,1.,24.0,0.,24.0
1979-07-31 16:36:09.250 ,1,1,0.,24.0,0.,24.0,1.,24.0,0.,24.0
1979-07-31 16:36:33.250 ,1,0,0.,24.0,0.,24.0,0.,24.0,0.,24.0
1979-07-31 16:36:57.250 ,2,1,0.,24.0,0.,24.0,2.,24.0,0.,24.0
1979-07-31 16:37:21.250 ,2,0,0.,24.0,0.,24.0,1.,24.0,0.,24.0
1979-07-31 16:37:45.250 ,3,1,0.,24.0,0.,24.0,3.,24.0,0.,24.0
1979-07-31 16:38:09.250 ,3,0,0.,24.0,0.,24.0,0.,24.0,0.,24.0
1979-07-31 16:38:33.250 ,4,1,0.,24.0,1.,24.0,2.,24.0,0.,24.0
1979-07-31 16:38:57.250 ,4,0,2.,24.0,0.,24.0,1.,24.0,0.,24.0
1979-07-31 16:39:21.250 ,5,1,0.,24.0,0.,24.0,2.,24.0,0.,24.0
1979-07-31 16:39:45.250 ,5,0,0.,24.0,0.,24.0,3.,24.0,0.,24.0
1979-07-31 16:40:09.250 ,6,1,0.,24.0,0.,24.0,1.,24.0,0.,24.0
1979-07-31 16:40:33.250 ,6,0,0.,24.0,1.,24.0,1.,24.0,0.,24.0
1979-07-31 16:40:57.250 ,7,1,6.,24.0,0.,24.0,3.,24.0,0.,24.0
1979-07-31 16:41:21.250 ,7,0,32.,24.0,0.,24.0,2.,24.0,0.,24.0
1979-07-31 16:41:45.250 ,7,1,30.,24.0,0.,24.0,2.,24.0,0.,24.0
1979-07-31 16:42:09.250 ,7,0,28.,24.0,0.,24.0,2.,24.0,0.,24.0
1979-07-31 16:42:33.250 ,6,1,22.,24.0,0.,24.0,2.,24.0,0.,24.0
1979-07-31 16:42:57.250 ,6,0,0.,24.0,0.,24.0,4.,24.0,0.,24.0
1979-07-31 16:43:21.250 ,5,1,0.,24.0,0.,24.0,2.,24.0,0.,24.0
1979-07-31 16:43:45.250 ,5,0,0.,24.0,0.,24.0,2.,24.0,0.,24.0
1979-07-31 16:44:09.250 ,4,1,0.,24.0,0.,24.0,3.,24.0,0.,24.0
1979-07-31 16:44:33.250 ,4,0,0.,24.0,0.,24.0,0.,24.0,0.,24.0
1979-07-31 16:44:57.250 ,3,1,0.,24.0,0.,24.0,1.,24.0,0.,24.0
1979-07-31 16:45:21.250 ,3,0,0.,24.0,0.,24.0,2.,24.0,0.,24.0
1979-07-31 16:45:45.250 ,2,1,0.,24.0,0.,24.0,1.,24.0,0.,24.0
1979-07-31 16:46:09.250 ,2,0,0.,24.0,0.,24.0,1.,24.0,0.,24.0
1979-07-31 16:46:33.250 ,1,1,0.,24.0,0.,24.0,1.,24.0,0.,24.0
1979-07-31 16:46:57.250 ,1,0,0.,24.0,0.,24.0,2.,24.0,0.,24.0
1979-07-31 16:47:21.250 ,0,1,0.,24.0,0.,24.0,1.,24.0,0.,24.0
1979-07-31 16:47:45.250 ,0,0,0.,24.0,0.,24.0,2.,24.0,0.,24.0
1979-07-31 16:48:09.250 ,0,1,0.,24.0,0.,24.0,2.,24.0,0.,24.0
1979-07-31 16:48:33.250 ,0,0,0.,24.0,0.,24.0,3.,24.0,0.,24.0
1979-07-31 16:48:57.250 ,1,1,0.,24.0,0.,24.0,2.,24.0,0.,24.0
1979-07-31 16:49:21.250 ,1,0,0.,24.0,0.,24.0,1.,24.0,0.,24.0
1979-07-31 16:49:45.250 ,2,1,0.,24.0,0.,24.0,1.,24.0,0.,24.0
1979-07-31 16:50:09.250 ,2,0,0.,24.0,0.,24.0,2.,24.0,0.,24.0
1979-07-31 16:50:33.250 ,3,1,0.,24.0,0.,24.0,2.,24.0,0.,24.0
1979-07-31 16:50:57.250 ,3,0,0.,24.0,0.,24.0,0.,24.0,0.,24.0
1979-07-31 16:51:21.250 ,4,1,0.,24.0,0.,24.0,1.,24.0,0.,24.0
1979-07-31 16:51:45.250 ,4,0,0.,24.0,0.,24.0,1.,24.0,0.,24.0
1979-07-31 16:52:09.250 ,5,1,0.,24.0,0.,24.0,0.,24.0,0.,24.0
1979-07-31 16:52:33.250 ,5,0,0.,24.0,0.,24.0,3.,24.0,0.,24.0
1979-07-31 16:52:57.250 ,6,1,0.,24.0,0.,24.0,1.,24.0,0.,24.0
1979-07-31 16:53:21.250 ,6,0,0.,24.0,0.,24.0,3.,24.0,0.,24.0
1979-07-31 16:53:45.250 ,7,1,2.,24.0,0.,24.0,3.,24.0,0.,24.0
1979-07-31 16:54:09.250 ,7,0,39.,24.0,0.,24.0,2.,24.0,0.,24.0
1979-07-31 16:54:33.250 ,7,1,33.,24.0,0.,24.0,1.,24.0,0.,24.0
1979-07-31 16:54:57.250 ,7,0,41.,24.0,0.,24.0,1.,24.0,0.,24.0
1979-07-31 16:55:21.250 ,6,1,21.,24.0,0.,24.0,2.,24.0,0.,24.0
1979-07-31 16:55:45.250 ,6,0,0.,24.0,0.,24.0,2.,24.0,0.,24.0
1979-07-31 16:56:09.250 ,5,1,0.,24.0,0.,24.0,2.,24.0,0.,24.0
1979-07-31 16:56:33.250 ,5,0,0.,24.0,0.,24.0,1.,24.0,0.,24.0
1979-07-31 16:56:57.250 ,4,1,0.,24.0,0.,24.0,4.,24.0,0.,24.0
1979-07-31 16:57:21.250 ,4,0,0.,24.0,0.,24.0,1.,24.0,0.,24.0
1979-07-31 16:57:45.250 ,3,1,0.,24.0,0.,24.0,1.,24.0,0.,24.0
1979-07-31 16:58:09.250 ,3,0,0.,24.0,0.,24.0,0.,24.0,0.,24.0
1979-07-31 16:58:33.250 ,2,1,0.,24.0,0.,24.0,2.,24.0,0.,24.0
1979-07-31 16:58:57.250 ,2,0,0.,24.0,0.,24.0,2.,24.0,0.,24.0
1979-07-31 16:59:21.250 ,1,1,0.,24.0,0.,24.0,0.,24.0,0.,24.0
1979-07-31 16:59:45.250 ,1,0,0.,24.0,0.,24.0,2.,24.0,0.,24.0
1979-07-31 17:00:09.250 ,0,1,1.,24.0,0.,24.0,0.,24.0,0.,24.0
1979-07-31 17:00:33.250 ,0,0,0.,24.0,0.,24.0,2.,24.0,0.,24.0
1979-07-31 17:00:57.250 ,0,1,0.,24.0,0.,24.0,0.,24.0,0.,24.0
1979-07-31 17:01:21.250 ,0,0,0.,24.0,0.,24.0,3.,24.0,0.,24.0
1979-07-31 17:01:45.250 ,1,1,0.,24.0,0.,24.0,1.,24.0,0.,24.0
1979-07-31 17:02:09.250 ,1,0,0.,24.0,1.,24.0,0.,24.0,0.,24.0
1979-07-31 17:02:33.250 ,2,1,0.,24.0,0.,24.0,3.,24.0,0.,24.0
1979-07-31 17:02:57.250 ,2,0,0.,24.0,0.,24.0,1.,24.0,0.,24.0
1979-07-31 17:03:21.250 ,3,1,0.,24.0,0.,24.0,0.,24.0,0.,24.0
1979-07-31 17:03:45.250 ,3,0,0.,24.0,0.,24.0,2.,24.0,0.,24.0
1979-07-31 17:04:09.250 ,4,1,0.,24.0,0.,24.0,1.,24.0,0.,24.0
1979-07-31 17:04:33.250 ,4,0,0.,24.0,0.,24.0,2.,24.0,0.,24.0
1979-07-31 17:04:57.250 ,5,1,0.,24.0,0.,24.0,1.,24.0,0.,24.0
1979-07-31 17:05:21.250 ,5,0,0.,24.0,0.,24.0,1.,24.0,0.,24.0
1979-07-31 17:05:45.250 ,6,1,0.,24.0,0.,24.0,1.,24.0,0.,24.0
1979-07-31 17:06:09.250 ,6,0,0.,24.0,0.,24.0,0.,24.0,0.,24.0
1979-07-31 17:06:33.250 ,7,0,8.,24.0,0.,24.0,1.,24.0,0.,24.0
1979-07-31 17:06:57.250 ,7,0,23.,24.0,0.,24.0,2.,24.0,0.,24.0
1979-07-31 17:07:21.250 ,5,1,16.,24.0,0.,24.0,0.,24.0,0.,24.0
1979-07-31 17:07:45.250 ,1,1,0.,24.0,0.,24.0,3.,24.0,0.,24.0
1979-07-31 17:08:09.250 ,2,1,0.,24.0,0.,24.0,2.,24.0,0.,24.0
1979-07-31 17:08:33.250 ,6,1,0.,24.0,1.,24.0,2.,24.0,0.,24.0
1979-07-31 17:08:57.250 ,5,1,19.,24.0,0.,24.0,0.,24.0,0.,24.0
1979-07-31 17:09:21.250 ,1,1,0.,24.0,0.,24.0,1.,24.0,0.,24.0
1979-07-31 17:09:45.250 ,2,1,0.,24.0,0.,24.0,2.,24.0,0.,24.0
1979-07-31 17:10:09.250 ,6,1,1.,24.0,0.,24.0,2.,24.0,0.,24.0
1979-07-31 17:10:33.250 ,5,1,20.,24.0,0.,24.0,1.,24.0,0.,24.0
1979-07-31 17:10:57.250 ,1,1,0.,24.0,0.,24.0,2.,24.0,0.,24.0
1979-07-31 17:11:21.250 ,2,1,0.,24.0,0.,24.0,3.,24.0,0.,24.0
1979-07-31 17:11:45.250 ,6,0,0.,24.0,0.,24.0,0.,24.0,0.,24.0
1979-07-31 17:12:09.250 ,0,0,20.,24.0,0.,24.0,1.,24.0,0.,24.0
1979-07-31 17:12:33.250 ,1,1,0.,24.0,0.,24.0,2.,24.0,0.,24.0
1979-07-31 17:12:57.250 ,2,1,0.,24.0,0.,24.0,0.,24.0,0.,24.0
1979-07-31 17:13:21.250 ,6,1,0.,24.0,0.,24.0,5.,24.0,0.,24.0
1979-07-31 17:13:45.250 ,5,1,11.,24.0,0.,24.0,1.,24.0,0.,24.0
1979-07-31 17:14:09.250 ,1,1,0.,24.0,0.,24.0,5.,24.0,0.,24.0
1979-07-31 17:14:33.250 ,2,1,1.,24.0,0.,24.0,2.,24.0,0.,24.0
1979-07-31 17:14:57.250 ,6,1,0.,24.0,0.,24.0,2.,24.0,0.,24.0
1979-07-31 17:15:21.250 ,5,1,17.,24.0,0.,24.0,5.,24.0,0.,24.0
1979-07-31 17:15:45.250 ,1,1,0.,24.0,0.,24.0,2.,24.0,0.,24.0
1979-07-31 17:16:09.250 ,2,1,0.,24.0,0.,24.0,2.,24.0,0.,24.0
1979-07-31 17:16:33.250 ,6,1,0.,24.0,0.,24.0,0.,24.0,0.,24.0
1979-07-31 17:16:57.250 ,5,1,10.,24.0,1.,24.0,0.,24.0,0.,24.0
1979-07-31 17:17:21.250 ,1,1,0.,24.0,0.,24.0,2.,24.0,0.,24.0
1979-07-31 17:17:45.250 ,0,0,0.,24.0,0.,24.0,0.,24.0,0.,24.0
1979-07-31 17:18:09.250 ,0,0,0.,24.0,0.,24.0,1.,24.0,0.,24.0
1979-07-31 17:18:33.250 ,5,1,16.,24.0,0.,24.0,3.,24.0,0.,24.0
1979-07-31 17:18:57.250 ,5,0,0.,24.0,0.,24.0,0.,24.0,0.,24.0
1979-07-31 17:19:21.250 ,4,1,0.,24.0,0.,24.0,3.,24.0,0.,24.0
1979-07-31 17:19:45.250 ,4,0,0.,24.0,0.,24.0,0.,24.0,0.,24.0
1979-07-31 17:20:09.250 ,3,1,0.,24.0,0.,24.0,2.,24.0,0.,24.0
1979-07-31 17:20:33.250 ,3,0,0.,24.0,0.,24.0,1.,24.0,0.,24.0
1979-07-31 17:20:57.250 ,2,1,1.,24.0,0.,24.0,1.,24.0,0.,24.0
1979-07-31 17:21:21.250 ,2,0,0.,24.0,0.,24.0,1.,24.0,0.,24.0
1979-07-31 17:21:45.250 ,1,1,0.,24.0,0.,24.0,0.,24.0,0.,24.0
1979-07-31 17:22:09.250 ,1,0,0.,24.0,1.,24.0,2.,24.0,0.,24.0
1979-07-31 17:22:33.250 ,0,1,0.,24.0,0.,24.0,2.,24.0,0.,24.0
1979-07-31 17:22:57.250 ,0,0,0.,24.0,0.,24.0,1.,24.0,0.,24.0
1979-07-31 17:23:21.250 ,0,1,0.,24.0,0.,24.0,3.,24.0,0.,24.0
1979-07-31 17:23:45.250 ,0,0,0.,24.0,0.,24.0,0.,24.0,0.,24.0
1979-07-31 17:24:09.250 ,1,1,0.,24.0,0.,24.0,3.,24.0,0.,24.0
1979-07-31 17:24:33.250 ,1,0,0.,24.0,0.,24.0,0.,24.0,0.,24.0
1979-07-31 17:24:57.250 ,2,1,0.,24.0,0.,24.0,1.,24.0,0.,24.0
1979-07-31 17:25:21.250 ,2,0,0.,24.0,0.,24.0,0.,24.0,0.,24.0
1979-07-31 17:25:45.250 ,3,1,0.,24.0,0.,24.0,0.,24.0,0.,24.0
1979-07-31 17:26:09.250 ,3,0,0.,24.0,0.,24.0,1.,24.0,0.,24.0
1979-07-31 17:26:33.250 ,4,1,0.,24.0,0.,24.0,1.,24.0,0.,24.0
1979-07-31 17:26:57.250 ,4,0,0.,24.0,0.,24.0,0.,24.0,0.,24.0
1979-07-31 17:27:21.250 ,5,1,0.,24.0,0.,24.0,3.,24.0,0.,24.0
1979-07-31 17:27:45.250 ,5,0,0.,24.0,0.,24.0,2.,24.0,0.,24.0
1979-07-31 17:28:09.250 ,6,1,0.,24.0,0.,24.0,1.,24.0,0.,24.0
1979-07-31 17:28:33.250 ,6,0,0.,24.0,0.,24.0,2.,24.0,0.,24.0
1979-07-31 17:28:57.250 ,7,1,11.,24.0,0.,24.0,5.,24.0,0.,24.0
1979-07-31 17:29:21.250 ,7,0,37.,24.0,0.,24.0,0.,24.0,0.,24.0
1979-07-31 17:29:45.250 ,7,1,32.,24.0,0.,24.0,4.,24.0,0.,24.0
1979-07-31 17:30:09.250 ,7,0,31.,24.0,0.,24.0,0.,24.0,0.,24.0
1979-07-31 17:30:33.250 ,6,1,19.,24.0,0.,24.0,1.,24.0,0.,24.0
1979-07-31 17:30:57.250 ,6,0,0.,24.0,0.,24.0,1.,24.0,0.,24.0
1979-07-31 17:31:21.250 ,5,1,0.,24.0,0.,24.0,3.,24.0,0.,24.0
1979-07-31 17:31:45.250 ,5,0,0.,24.0,0.,24.0,1.,24.0,0.,24.0
1979-07-31 17:32:09.250 ,4,1,0.,24.0,0.,24.0,1.,24.0,0.,24.0
1979-07-31 17:32:33.250 ,4,0,0.,24.0,0.,24.0,2.,24.0,0.,24.0
1979-07-31 17:32:57.250 ,3,1,0.,24.0,0.,24.0,3.,24.0,0.,24.0
1979-07-31 17:33:21.250 ,0,0,0.,24.0,0.,24.0,0.,24.0,0.,24.0
1979-07-31 17:33:52.450 ,0,0,0.,24.0,0.,24.0,3.,24.0,0.,24.0
1979-07-31 17:34:09.250 ,0,0,0.,24.0,0.,24.0,1.,24.0,0.,24.0
1979-07-31 17:34:37.450 ,0,0,0.,24.0,0.,24.0,1.,24.0,0.,24.0
1979-07-31 17:34:57.250 ,0,0,0.,24.0,0.,24.0,1.,24.0,0.,24.0
1979-07-31 17:35:21.250 ,0,1,0.,24.0,0.,24.0,1.,24.0,0.,24.0
1979-07-31 17:35:45.250 ,0,0,0.,24.0,0.,24.0,1.,24.0,0.,24.0
1979-07-31 17:36:09.250 ,0,1,0.,24.0,0.,24.0,1.,24.0,0.,24.0
1979-07-31 17:36:33.250 ,0,0,0.,24.0,0.,24.0,1.,24.0,0.,24.0
1979-07-31 17:36:57.250 ,1,1,0.,24.0,0.,24.0,2.,24.0,0.,24.0
1979-07-31 17:37:21.250 ,1,0,0.,24.0,0.,24.0,2.,24.0,0.,24.0
1979-07-31 17:37:45.250 ,2,1,0.,24.0,0.,24.0,8.,24.0,0.,24.0
1979-07-31 17:38:09.250 ,2,0,0.,24.0,0.,24.0,1.,24.0,0.,24.0
1979-07-31 17:38:33.250 ,3,1,0.,24.0,1.,24.0,2.,24.0,0.,24.0
1979-07-31 17:38:57.250 ,3,0,0.,24.0,0.,24.0,0.,24.0,0.,24.0
1979-07-31 17:39:21.250 ,4,1,0.,24.0,0.,24.0,4.,24.0,0.,24.0
1979-07-31 17:39:45.250 ,4,0,0.,24.0,0.,24.0,4.,24.0,0.,24.0
1979-07-31 17:40:09.250 ,5,1,0.,24.0,1.,24.0,2.,24.0,0.,24.0
1979-07-31 17:40:33.250 ,5,0,0.,24.0,0.,24.0,1.,24.0,0.,24.0
1979-07-31 17:40:57.250 ,6,1,1.,24.0,0.,24.0,0.,24.0,0.,24.0
1979-07-31 17:41:21.250 ,6,0,0.,24.0,0.,24.0,2.,24.0,0.,24.0
1979-07-31 17:41:45.250 ,7,1,11.,24.0,0.,24.0,0.,24.0,0.,24.0
1979-07-31 17:42:09.250 ,7,0,26.,24.0,0.,24.0,3.,24.0,0.,24.0
1979-07-31 17:42:33.250 ,7,1,30.,24.0,0.,24.0,1.,24.0,0.,24.0
1979-07-31 17:42:57.250 ,7,0,26.,24.0,0.,24.0,1.,24.0,0.,24.0
1979-07-31 17:43:21.250 ,6,1,24.,24.0,0.,24.0,2.,24.0,0.,24.0
1979-07-31 17:43:45.250 ,6,0,0.,24.0,0.,24.0,2.,24.0,0.,24.0
1979-07-31 17:44:09.250 ,5,1,0.,24.0,0.,24.0,2.,24.0,0.,24.0
1979-07-31 17:44:33.250 ,5,0,0.,24.0,1.,24.0,1.,24.0,0.,24.0
1979-07-31 17:44:57.250 ,4,1,0.,24.0,0.,24.0,2.,24.0,0.,24.0